Location: Oslo
(59.9170°N, 10.7500°E)
Time: 20:24:59
(UTC+02:00)

ISS - Visible Passes

Search period start: 23 September 2017 00:00
Search period end: 03 October 2017 00:00
Orbit: 401 x 407 km, 51.6° (Epoch: 24 September)

Date Brightness Start Highest point End Pass type
(mag) Time Alt. Az. Time Alt. Az. Time Alt. Az.
29 Sep -1.5 21:04:22 10° SSW 21:05:17 13° S 21:05:17 13° S visible
30 Sep -1.6 20:12:45 10° S 20:14:18 13° SSE 20:15:03 12° SE visible
30 Sep -1.0 21:47:30 10° SW 21:47:42 11° SW 21:47:42 11° SW visible
01 Oct -1.9 20:55:25 10° SW 20:57:23 18° S 20:57:23 18° S visible
02 Oct -1.8 20:03:28 10° SSW 20:05:36 16° SSE 20:07:01 13° SE visible
02 Oct -1.3 21:38:53 10° SW 21:39:39 14° SW 21:39:39 14° SW visible
